Regional Weather Roundup
Issued by NWS

Home | Current Version | Previous Version | Text Only | Print | Product List | Glossary Off
Versions: 1 2 3 4 5 6 7 8 9 10 11 12 13 14 15 16 17 18 19 20 21 22 23 24 25 26 27 28 29 30 31 32 33 34 35 36 37 38 39 40 41 42 43 44 45 46 47 48 49 50

000
ASUS43 KLMK 041302
RWRKY
KENTUCKY REGIONAL WEATHER ROUNDUP
NATIONAL WEATHER SERVICE LOUISVILLE KY
900 AM EDT WED MAY 04 2016

NOTE "FAIR" INDICATES FEW OR NO CLOUDS BELOW 12,000 FEET
WITH NO SIGNIFICANT WEATHER AND/OR OBSTRUCTIONS TO VISIBILITY.

KYZ001>023-026-027-061>063-070>075-041400-
WESTERN AND SOUTH CENTRAL KENTUCKY

CITY           SKY/WX    TMP DP  RH WIND       PRES   REMARKS
PADUCAH        MOSUNNY   56  48  74 SW8       29.77F
HENDERSON      CLOUDY    54  45  71 SW9       29.75S
OWENSBORO      PTSUNNY   54  48  80 SW10      29.76F
HOPKINSVILLE   SUNNY     55  50  82 SW10      29.80F
BOWLING GREEN  SUNNY     55  48  77 W8        29.81F
GLASGOW        NOT AVBL
$$

KYZ024-025-028>034-038-045-046-053-041400-
NORTH CENTRAL KENTUCKY

CITY           SKY/WX    TMP DP  RH WIND       PRES   REMARKS
LOUISVILLE/SDF PTSUNNY   56  43  61 SW7       29.74F
LOUISVILLE/LOU CLOUDY    55  44  66 S6        29.75F
FORT KNOX      PTSUNNY   57  45  64 SW10      29.74F
$$

KYZ035>037-039>044-047>052-055>060-089>105-041400-
NORTHEAST KENTUCKY

CITY           SKY/WX    TMP DP  RH WIND       PRES   REMARKS
LEXINGTON      SUNNY     53  45  74 SW10      29.77S
COVINGTON      NOT AVBL
FRANKFORT      SUNNY     55  45  68 SW9       29.75F
$$

KYZ054-064>069-076>088-106>120-041400-
SOUTHEAST KENTUCKY

CITY           SKY/WX    TMP DP  RH WIND       PRES   REMARKS
JACKSON        SUNNY     54  47  77 CALM      29.78F
LONDON         SUNNY     54  44  69 SW7       29.81S
SOMERSET       NOT AVBL
MIDDLESBORO    NOT AVBL
MONTICELLO     SUNNY     56  47  71 W14       29.83F
$$





USA.gov is the U.S. government's official web portal to all federal, state and local government web resources and services.